Zurück zum Katalog

CZ-6A DEB

AktivPO
NORAD 54479·DEBRIS·🇨🇳 China

Gestartet Nov 11, 2022 von Taiyuan Satellite Launch Center

Loading…

Nächste Überflüge (nächste 24 Stunden)

TLE

AktuellSource: Space-Track

Epoche: Sep 14, 2026, 02:37 UTC

1 54479U 22151HF  26257.10908810  .00006108  00000-0  10663-2 0  9992
2 54479  98.6266 319.7322 0077699  39.7875 320.8989 14.66366877202728

Verfolge CZ-6A DEB in Echtzeit mit AllMySat

Download on the App Store